Dewpoint
68 68 68 69 70 70 70 71 71 71 71 71 71 70 70 70 70 70 69 69 68 69 69 68 69 68 69 69 69 70 70 70 69 69 69 69 69 69 69 69 69 68 67 67 66 67 67 66 68 67 68 68 68 67 66 65 62 61 61 63 63 63
68 68 68 70 69 70 70 70 69 69 70 70 70 70 70 69 69 69 69 69 68 69 69 68 69 68 69 68 68 70 69 70 69 69 69 69 68 68 69 68 69 68 67 66 67 65 66 67 67 66 67 68 68 66 65 65 64 62 62 62 63 65
67 67 68 68 69 69 68 69 68 68 69 70 70 69 69 67 68 67 68 67 70 67 67 68 68 67 67 68 68 69 69 69 69 69 69 70 69 69 69 69 68 68 67 67 65 62 62 63 64 67 67 67 66 65 65 64 63 62 61 62 62 65
68 68 68 69 69 69 69 69 68 68 68 69 69 68 67 68 67 67 67 69 69 67 68 67 69 68 68 69 69 70 70 69 69 69 69 69 68 69 69 69 68 68 66 63 60 59 58 60 60 63 65 65 64 64 65 65 63 61 61 63 64 67
67 68 68 69 68 69 69 69 68 69 68 70 69 68 68 68 67 67 66 69 68 68 68 68 68 69 67 67 68 69 69 68 69 68 69 67 68 67 68 67 66 66 62 61 58 58 58 59 61 61 62 63 63 64 66 65 65 61 61 63 65 67
67 67 68 69 68 69 69 69 68 69 69 69 68 69 68 67 67 67 68 68 68 68 68 67 68 67 67 69 67 67 67 67 66 66 68 66 66 67 67 64 63 62 60 60 59 59 62 63 60 61 61 62 63 64 63 64 63 63 63 64 66 66
65 66 66 67 68 68 69 68 70 68 68 68 69 68 69 67 67 67 68 68 69 68 68 68 67 68 67 68 66 67 66 65 66 68 66 64 63 66 66 64 63 63 61 60 58 58 62 60 60 56 59 59 59 60 63 62 65 63 63 65 66 67
62 65 65 65 66 66 68 68 68 68 67 69 68 68 68 69 67 68 67 67 68 67 67 67 67 67 67 67 67 68 68 68 65 66 69 67 66 67 68 68 66 69 62 58 56 59 60 57 61 61 59 59 61 61 62 62 64 63 63 64 66 67
61 63 64 64 65 66 67 68 68 68 68 67 67 67 67 67 67 66 67 67 68 68 67 67 67 66 67 66 67 68 68 68 67 67 68 68 67 68 65 63 62 62 62 59 58 61 59 57 62 62 59 59 59 59 62 63 65 62 62 63 65 67
54 54 61 63 65 66 67 66 67 67 68 68 68 67 67 68 68 67 66 68 67 68 68 67 67 67 67 67 67 68 68 67 66 67 67 66 68 66 66 66 63 60 58 58 57 59 60 58 57 59 57 57 57 59 62 62 63 63 63 63 64 67
53 62 52 54 59 64 66 66 64 65 67 67 68 67 67 67 68 68 68 67 67 67 67 67 68 67 67 67 67 66 66 67 67 68 68 67 68 65 66 64 61 61 59 56 56 57 59 57 57 55 58 56 57 57 59 59 59 60 60 63 63 65
57 65 66 53 61 60 62 57 64 65 65 67 66 67 66 67 67 65 66 67 67 67 67 68 68 66 67 67 66 65 65 65 67 66 67 67 67 64 66 64 62 60 61 62 61 59 58 58 57 54 55 55 54 55 56 59 57 58 58 63 63 63
55 65 61 60 58 60 65 57 60 64 65 65 66 66 65 66 67 67 68 67 68 67 67 67 66 66 65 66 65 65 65 66 66 67 67 66 66 66 66 64 65 62 62 62 61 59 56 59 57 57 55 53 54 52 52 54 58 60 58 62 63 62
58 56 62 58 68 57 60 57 62 64 66 66 66 66 66 66 67 67 69 68 69 67 67 68 65 66 66 67 66 65 65 66 67 68 68 66 66 65 65 64 63 59 61 61 58 60 59 57 57 55 58 55 56 54 56 52 56 57 60 59 61 63
63 62 60 61 61 60 62 59 57 60 63 65 64 64 65 64 66 68 68 67 67 67 68 68 67 66 65 65 65 66 67 67 68 67 66 66 66 64 63 64 63 61 61 59 56 60 56 57 56 53 57 62 57 55 58 58 57 56 57 59 63 61
63 64 64 64 64 65 63 63 61 61 63 66 63 63 65 65 65 66 66 68 67 66 67 66 66 67 66 66 66 66 65 66 65 66 66 65 64 63 62 66 66 64 62 56 56 57 58 58 57 55 58 60 60 60 59 58 57 54 53 58 59 61
64 64 65 65 64 65 65 63 60 63 59 64 63 64 59 62 63 66 66 68 68 68 66 66 65 66 68 66 65 66 67 65 65 65 65 64 64 65 65 65 66 66 65 63 57 59 59 62 62 62 62 62 62 62 62 62 60 59 57 59 59 56
65 65 66 66 65 66 61 61 61 56 62 56 60 58 60 58 62 62 62 64 65 67 67 65 66 66 66 65 67 65 65 63 65 64 65 65 65 66 65 66 66 66 65 65 64 63 64 64 63 62 63 65 64 65 63 63 63 63 59 56 57 58
65 65 66 66 65 63 64 57 61 59 59 59 57 60 61 58 59 61 62 64 63 65 65 65 65 67 66 66 66 65 64 64 65 64 64 64 65 65 65 66 65 64 64 63 65 65 64 64 64 64 64 64 64 63 65 64 63 63 62 60 59 56
65 65 65 65 62 59 59 61 57 61 58 58 56 58 62 59 61 61 61 62 65 69 62 67 65 65 65 65 65 65 64 64 65 65 65 64 64 64 64 65 64 63 62 62 65 64 64 63 64 64 64 65 66 65 64 66 63 62 62 61 61 60
64 65 64 60 60 59 59 59 64 58 56 61 56 58 59 59 57 57 58 57 59 59 60 59 59 60 65 66 64 63 62 63 65 65 64 65 64 65 64 65 65 65 63 62 62 64 64 64 63 62 63 64 65 65 61 62 63 62 62 63 62 62
63 63 63 63 65 64 62 54 59 56 55 56 50 54 56 57 58 59 60 60 61 63 62 61 61 62 62 60 65 63 62 63 65 65 64 64 64 64 64 64 64 64 64 63 62 63 63 63 61 60 59 60 62 64 64 62 63 60 67 63 64 62
62 62 63 63 62 60 60 61 63 60 61 53 54 57 54 56 57 53 63 59 62 63 63 58 59 60 62 59 61 63 61 64 64 65 64 64 63 63 64 64 64 63 61 63 62 63 62 63 60 61 61 60 57 58 60 63 65 65 65 64 66 64
62 62 62 62 61 61 61 61 60 59 59 58 55 57 58 59 58 56 55 59 62 63 59 57 55 53 55 60 60 59 61 62 63 65 65 64 64 62 64 64 63 62 62 59 61 61 63 62 62 60 57 57 58 57 55 58 60 63 63 64 65 65
61 61 61 61 61 60 60 60 60 59 57 57 59 57 56 57 58 57 57 60 62 60 58 58 58 56 54 56 58 58 61 61 62 64 64 62 63 62 62 63 63 62 61 60 59 61 62 63 63 63 60 58 56 56 55 58 59 61 63 63 62 63
60 60 60 61 60 59 60 59 59 57 57 57 56 58 56 55 58 58 54 61 56 57 57 59 55 55 56 58 60 60 59 60 58 61 58 60 61 61 61 61 62 62 61 62 61 61 60 63 63 63 62 62 60 57 57 60 59 56 63 63 64 64
60 60 60 61 59 58 59 57 57 56 56 56 56 58 58 59 57 57 59 58 59 61 56 58 59 57 57 57 57 56 57 57 58 60 62 62 58 57 55 55 60 61 61 61 62 60 59 60 62 62 62 62 61 62 62 59 57 58 56 60 63 63
60 60 59 61 58 58 57 56 57 56 56 57 57 55 58 59 59 58 59 58 58 61 59 59 60 58 58 57 58 58 58 57 57 53 54 54 54 54 57 56 58 61 61 61 60 59 59 61 60 59 62 62 62 62 62 61 61 59 57 56 58 62
60 60 60 61 57 57 57 56 57 57 57 56 55 56 55 55 58 59 59 60 59 56 58 59 57 57 56 55 56 56 55 53 51 50 49 50 52 53 55 56 57 57 58 58 60 60 58 58 59 59 60 59 59 61 60 61 61 61 58 56 56 57
60 59 60 60 57 57 58 56 57 59 58 55 55 54 54 56 57 59 59 58 58 59 57 60 59 56 54 50 54 54 53 53 54 52 50 49 52 54 56 56 57 57 57 57 57 56 57 57 58 58 58 60 58 57 58 58 59 59 58 56 54 53
59 59 59 59 57 57 57 56 56 58 58 54 55 55 54 56 56 58 56 57 59 58 59 57 58 57 56 53 55 56 56 53 54 54 53 52 53 52 56 56 56 56 55 56 56 56 55 56 55 53 53 51 50 52 51 51 51 52 50 50 49 48
60 60 59 59 58 57 57 56 57 58 58 55 55 55 54 55 55 56 57 57 59 58 57 57 58 57 57 57 57 55 55 55 55 56 55 55 56 54 55 54 56 56 56 56 56 56 55 55 55 54 53 53 53 53 52 50 50 51 51 51 50 47
59 60 59 59 58 57 57 56 56 57 58 57 56 56 54 56 55 57 56 57 57 57 56 55 57 55 57 57 57 57 57 57 56 56 56 53 54 55 53 54 54 54 53 53 53 53 53 53 52 52 54 52 52 50 50 51 52 50 51 51 50 49
59 60 59 58 57 57 57 57 57 57 58 57 57 58 56 55 56 57 56 57 57 57 56 57 56 56 55 57 57 59 58 56 55 55 55 56 56 55 56 50 53 54 54 55 56 54 54 54 53 53 52 51 49 50 52 53 51 54 54 49 48 48
58 60 59 57 57 57 56 57 57 57 58 57 57 58 58 57 57 58 56 57 58 58 57 56 56 56 55 58 58 57 57 56 56 56 55 55 56 55 56 52 53 55 55 55 54 54 53 53 53 52 52 51 56 49 51 47 52 50 48 49 49 48
58 60 59 57 57 57 56 57 58 58 57 57 55 57 58 57 58 61 58 57 58 59 58 58 56 56 56 58 57 57 56 57 56 56 55 54 55 54 55 54 55 55 53 52 54 54 53 53 53 53 52 52 52 48 49 49 49 50 50 51 51 50
58 59 59 57 57 57 57 57 57 58 57 58 56 56 56 59 58 59 61 58 59 59 60 58 57 56 55 58 57 57 55 55 56 56 56 55 55 54 54 55 54 54 55 55 55 52 53 53 53 53 52 51 52 49 48 52 52 50 51 51 51 51